This demonstration page uses our WeatherBlox Daily Observations layout. Learn more.

39.01783, -85.05884

Hourly Observations for August 3, 2020

Temp ( °F °C ) Dew Point ( °F °C ) Humidity (%) Winds ( mph kmh ) Pressure ( in mb ) Visibility ( mi km ) Precip ( " mm )
12:52 am 00:52 Partly Cloudy 68 20 63 17.2 84 84 S 6 9 29.97 1015 10 16.0934 0 0
1:52 am 01:52 Partly Cloudy 69 20.6 64 17.8 84 84 S 6 9 29.96 1015 10 16.0934 0 0
2:52 am 02:52 Mostly Cloudy 68 20 64 17.8 87 87 SW 5 7 29.94 1014 10 16.0934 0 0
3:52 am 03:52 Cloudy 69 20.6 64 17.8 84 84 Calm 29.95 1014 10 16.0934 0 0
4:52 am 04:52 Cloudy 67 19.4 65 18.3 93 93 S 5 7 29.94 1014 9 14.48406 0 0
5:52 am 05:52 Cloudy 67 19.4 64 17.8 91 91 S 5 7 29.96 1015 10 16.0934 0 0
6:52 am 06:52 Mostly Cloudy 68 20 64 17.8 87 87 S 5 7 29.97 1015 10 16.0934 0 0
7:52 am 07:52 Mostly Cloudy with Light Rain 68 20 64 17.8 87 87 S 6 9 29.98 1015 10 16.0934 0.001 0.001
8:52 am 08:52 Mostly Cloudy 69 20.6 65 18.3 87 87 SW 6 9 30 1016 10 16.0934 0.001 0.001
9:52 am 09:52 Mostly Cloudy 72 22.2 64 17.8 76 76 SW 7 11 30 1016 10 16.0934 0 0
10:52 am 10:52 Mostly Cloudy 75 23.9 64 17.8 69 69 VRB 3 6 30 1016 10 16.0934 0 0
11:52 am 11:52 Mostly Cloudy 78 25.6 65 18.3 64 64 S 5 7 29.99 1016 10 16.0934 0 0
12:52 pm 12:52 Cloudy 77 25 64 17.8 64 64 S 8 13 29.99 1016 10 16.0934 0 0
1:52 pm 13:52 Mostly Cloudy 77 25 65 18.3 66 66 SSW 9 15 29.97 1015 10 16.0934 0.02 0.508
2:52 pm 14:52 Mostly Cloudy 79 26.1 66 18.9 65 65 SW 6 9 29.95 1014 10 16.0934 0.001 0.001
3:52 pm 15:52 Partly Cloudy 81 27.2 67 19.4 62 62 SW 8 13 29.92 1013 10 16.0934 0 0
4:52 pm 16:52 Partly Cloudy 81 27.2 64 17.8 57 57 SW 8 13 29.91 1013 10 16.0934 0 0
5:52 pm 17:52 Partly Cloudy 81 27.2 64 17.8 57 57 WSW 6 9 29.91 1013 10 16.0934 0 0
6:06 pm 18:06 Mostly Cloudy 78 25.6 63 17.2 60 60 NW 22 35 29.91 1013 10 16.0934 0 0
6:20 pm 18:20 Mostly Cloudy 73 22.8 62 16.7 69 69 NNW 17 28 29.93 1014 10 16.0934 0 0
6:31 pm 18:31 Mostly Cloudy with Thunderstorms 72 22.2 62 16.7 71 71 N 17 28 29.93 1014 10 16.0934 0 0
6:52 pm 18:52 Mostly Cloudy with Thunderstorms 71 21.7 62 16.7 73 73 N 15 24 29.94 1014 10 16.0934 0 0
7:35 pm 19:35 Cloudy with Light Rain 69 20.6 64 17.8 84 84 NNW 7 11 29.96 1014 10 16.0934 0.001 0.001
7:52 pm 19:52 Cloudy with Light Rain 68 20 64 17.8 87 87 N 10 17 29.95 1014 6 9.65604 0.02 0.508
8:52 pm 20:52 Mostly Cloudy 68 20 64 17.8 87 87 ESE 8 13 29.93 1014 10 16.0934 0.001 0.001
9:52 pm 21:52 Mostly Cloudy 67 19.4 64 17.8 91 91 SW 3 6 29.94 1014 10 16.0934 0 0
10:52 pm 22:52 Mostly Cloudy 68 20 63 17.2 84 84 Calm 29.95 1014 10 16.0934 0 0
11:52 pm 23:52 Mostly Clear 66 18.9 62 16.7 87 87 E 3 6 29.94 1014 10 16.0934 0 0

Powered by AerisWeather